(307322) = 2002 QN125

Discovered at Palomar on 2002-08-20 by NEAT.

Orbit

Orbit type: Main Belt

Note: WebGL enabled browser required.

epoch2022-01-21.0
epoch JD2459600.5
perihelion date2019-07-26.82829
perihelion JD2458691.32829
argument of perihelion (°)236.81207
ascending node (°)72.00234
inclination (°)3.13109
eccentricity0.1942552
perihelion distance (AU)2.1278829
Tisserand w.r.t. Jupiter3.4
ΔV w.r.t. Earth (km/sec)9.2
semimajor axis (AU)2.6408892
mean anomaly (°)208.79711
mean daily motion (°/day)0.22965640
aphelion distance (AU)3.154
period (years)4.29
P-vector [x]0.62561160
P-vector [y]-0.69634712
P-vector [z]-0.35172549
Q-vector [x]0.77840320
Q-vector [y]0.58720218
Q-vector [z]0.22199564
absolute magnitude17.75
phase slope0.15
uncertainty0
referenceMPO 697288
observations used85
oppositions7
arc length (days)6277
first opposition used2002
last opposition used2019
residual rms (arc-secs)0.34
perturbers coarse indicatorM-v
perturbers precise indicator003Ek
first observation date used2002-08-20.0
last observation date used2019-10-27.0
computer namePan
JD of orbit computation2455893.092272
perihelion JD uncertainty (days)4.2925E-04
argument of perihelion uncertainty (°)2.2458E-04
ascending node uncertainty (°)1.9591E-04
inclination uncertainty (°)1.4459E-05
eccentricity uncertainty 9.6244E-08
perihelion distance uncertainty (AU)2.8491E-07
Minimum Orbit Intersection Distances (in AU)
for orbit epoch: 2458200.5, reference: MPO352879
Mercury1.68815
Venus1.3955
Earth1.11048
Mars0.72192
Jupiter2.10029
Saturn5.98413
Uranus15.1519
Neptune26.8784

Observations

85 total observations over interval: 2002 08 20.46884 – 2019 10 27.24591
These data are available for download (format description).

Date (UT) J2000 RA J2000 Dec Magn Location Ref
2002 08 20.46884 23 20 36.59 -10 25 34.3 20.3 R 644 – Palomar Mountain/NEAT MPS 252720
2002 08 20.47934 23 20 36.15 -10 25 37.2   644 – Palomar Mountain/NEAT MPS 252720
2002 08 20.48973 23 20 35.73 -10 25 40.4   644 – Palomar Mountain/NEAT MPS 252720
2002 08 29.48821 23 14 03.97 -11 13 36.5   644 – Palomar Mountain/NEAT MPS 252720
2002 08 29.49880 23 14 03.45 -11 13 39.6 20.0 R 644 – Palomar Mountain/NEAT MPS 252720
2002 08 29.50927 23 14 02.94 -11 13 43.3 20.6 R 644 – Palomar Mountain/NEAT MPS 252720
2002 09 15.32084 23 00 17.35 -12 33 02.2 20.4 R 644 – Palomar Mountain/NEAT MPS 252720
2002 09 15.39065 23 00 13.92 -12 33 17.1   644 – Palomar Mountain/NEAT MPS 252720
2002 09 15.41297 23 00 12.82 -12 33 22.8 20.3 R 644 – Palomar Mountain/NEAT MPS 252720
2007 12 04.31472 04 42 30.92 +22 14 09.1 21.0 V G96 – Mt. Lemmon Survey MPS 366937
2007 12 04.32134 04 42 30.49 +22 14 09.1 20.7 V G96 – Mt. Lemmon Survey MPS 366937
2007 12 04.32795 04 42 30.06 +22 14 08.5 20.9 V G96 – Mt. Lemmon Survey MPS 366937
2007 12 04.33454 04 42 29.62 +22 14 08.1 21.1 V G96 – Mt. Lemmon Survey MPS 366937
2010 05 07.38304 15 54 10.18 -18 40 32.2 20.3 V G96 – Mt. Lemmon Survey MPS 346235
2010 05 07.38789 15 54 09.90 -18 40 31.6 20.4 V G96 – Mt. Lemmon Survey MPS 346235
2010 05 07.39273 15 54 09.68 -18 40 31.1 20.7 V G96 – Mt. Lemmon Survey MPS 346235
2010 05 16.32950 15 46 00.33 -18 26 48.0 20.1 V G96 – Mt. Lemmon Survey MPS 346235
2010 05 16.33541 15 45 59.94 -18 26 47.3 20.1 V G96 – Mt. Lemmon Survey MPS 346235
2010 05 16.34146 15 45 59.61 -18 26 46.7 20.3 V G96 – Mt. Lemmon Survey MPS 346235
2010 05 16.34748 15 45 59.22 -18 26 46.2 19.8 V G96 – Mt. Lemmon Survey MPS 346235
2010 06 11.18689 15 22 46.74 -17 48 38.4 20.6 V G96 – Mt. Lemmon Survey MPS 346235
2010 06 11.19166 15 22 46.52 -17 48 38.1 20.9 V G96 – Mt. Lemmon Survey MPS 346235
2010 06 11.19642 15 22 46.30 -17 48 38.1 21.4 V G96 – Mt. Lemmon Survey MPS 346235
2010 06 11.20125 15 22 46.09 -17 48 38.1 20.6 V G96 – Mt. Lemmon Survey MPS 346235
2011 10 21.25131 02 59 42.27 +14 10 17.3 21.5 V 691 – Steward Observatory, Kitt Peak-Spacewatch MPS 394996
2011 10 21.26907 02 59 41.31 +14 10 14.3 20.8 V 691 – Steward Observatory, Kitt Peak-Spacewatch MPS 394996
2011 10 21.28685 02 59 40.41 +14 10 10.8 21.4 V 691 – Steward Observatory, Kitt Peak-Spacewatch MPS 394996
2011 10 29.21739 02 52 20.99 +13 45 28.7   691 – Steward Observatory, Kitt Peak-Spacewatch MPS 398151
2011 10 29.23513 02 52 19.91 +13 45 25.3   691 – Steward Observatory, Kitt Peak-Spacewatch MPS 398151
2011 10 29.25289 02 52 18.84 +13 45 21.5   691 – Steward Observatory, Kitt Peak-Spacewatch MPS 398151
2011 11 27.15941 02 26 30.76 +12 24 44.9 21.9 V G96 – Mt. Lemmon Survey MPS 402329
2011 11 27.16634 02 26 30.51 +12 24 44.1 21.8 V G96 – Mt. Lemmon Survey MPS 402329
2011 11 27.17331 02 26 30.26 +12 24 43.6 22.0 V G96 – Mt. Lemmon Survey MPS 402329
2011 11 27.18028 02 26 29.94 +12 24 43.7 22.0 V G96 – Mt. Lemmon Survey MPS 402329
2015 09 23.35477 00 28 36.89 -02 35 05.6 20.3 V 703 – Catalina Sky Survey MPS 631618
2015 09 23.35977 00 28 36.66 -02 35 06.5 20.4 V 703 – Catalina Sky Survey MPS 631618
2015 09 23.36979 00 28 36.08 -02 35 08.8 20.2 V 703 – Catalina Sky Survey MPS 631618
2015 09 23.38199 00 28 35.810 -02 35 11.86 19.8 i F51 – Pan-STARRS 1, Haleakala MPS 631618
2015 09 23.39300 00 28 35.210 -02 35 15.32 19.9 i F51 – Pan-STARRS 1, Haleakala MPS 631618
2015 09 23.40399 00 28 34.616 -02 35 18.36 20.0 i F51 – Pan-STARRS 1, Haleakala MPS 631618
2015 09 23.41500 00 28 34.025 -02 35 21.70 20.1 i F51 – Pan-STARRS 1, Haleakala MPS 631618
2015 10 22.31114 00 06 24.600 -04 13 23.14 20.9 i F51 – Pan-STARRS 1, Haleakala MPS 641371
2015 10 22.32218 00 06 24.248 -04 13 23.61 20.5 i F51 – Pan-STARRS 1, Haleakala MPS 641371
2015 10 22.33322 00 06 23.867 -04 13 24.34 20.5 i F51 – Pan-STARRS 1, Haleakala MPS 641371
2018 03 10.44055 12 00 20.571 +04 58 03.42 21.5 w F51 – Pan-STARRS 1, Haleakala MPS 875882
2018 03 10.45124 12 00 20.036 +04 58 06.77 21.5 w F51 – Pan-STARRS 1, Haleakala MPS 875882
2018 03 10.46197 12 00 19.466 +04 58 10.25 21.4 w F51 – Pan-STARRS 1, Haleakala MPS 875882
2019 06 14.56430 21 20 32.424 -18 58 05.67 21.0 w F51 – Pan-STARRS 1, Haleakala MPS 1010787
2019 06 14.57467 21 20 32.651 -18 58 06.26 21.0 w F51 – Pan-STARRS 1, Haleakala MPS 1010787
2019 06 14.58504 21 20 32.875 -18 58 06.74 21.0 w F51 – Pan-STARRS 1, Haleakala MPS 1010787
2019 06 14.59541 21 20 33.107 -18 58 07.41 21.1 w F51 – Pan-STARRS 1, Haleakala MPS 1010787
2019 07 26.49400 21 11 09.666 -21 26 14.63 19.8 i F51 – Pan-STARRS 1, Haleakala MPS 1014507
2019 07 26.50514 21 11 09.122 -21 26 18.01 19.8 i F51 – Pan-STARRS 1, Haleakala MPS 1014507
2019 07 26.51630 21 11 08.575 -21 26 21.32 19.7 i F51 – Pan-STARRS 1, Haleakala MPS 1014507
2019 07 26.52742 21 11 08.035 -21 26 24.71 19.6 i F51 – Pan-STARRS 1, Haleakala MPS 1014507
2019 07 27.375931 21 10 28.93 -21 30 44.0 19.73 r I41 – Palomar Mountain--ZTF MPS 1015530
2019 07 27.440459 21 10 25.76 -21 31 03.4 19.97 g I41 – Palomar Mountain--ZTF MPS 1015530
2019 07 29.328230 21 08 56.58 -21 40 34.4 20.57 g I41 – Palomar Mountain--ZTF MPS 1015530
2019 07 29.339860 21 08 55.97 -21 40 37.4 19.62 r I41 – Palomar Mountain--ZTF MPS 1015530
2019 08 09.49079 20 59 37.099 -22 32 13.43 19.6 w F51 – Pan-STARRS 1, Haleakala MPS 1021886
2019 08 09.50102 20 59 36.554 -22 32 15.86 19.7 w F51 – Pan-STARRS 1, Haleakala MPS 1021886
2019 08 09.51125 20 59 36.009 -22 32 18.30 19.6 w F51 – Pan-STARRS 1, Haleakala MPS 1021886
2019 08 09.52148 20 59 35.469 -22 32 20.72 19.7 w F51 – Pan-STARRS 1, Haleakala MPS 1021886
2019 08 22.18415 20 49 53.55 -23 13 25.3 20.5 G G96 – Mt. Lemmon Survey MPS 1023521
2019 08 22.18993 20 49 53.28 -23 13 26.1 20.1 G G96 – Mt. Lemmon Survey MPS 1023521
2019 08 22.19571 20 49 53.06 -23 13 27.0 20.5 G G96 – Mt. Lemmon Survey MPS 1023521
2019 08 22.20150 20 49 52.84 -23 13 27.6 20.3 G G96 – Mt. Lemmon Survey MPS 1023521
2019 08 24.34453 20 48 30.555 -23 17 58.06 21.6 w F51 – Pan-STARRS 1, Haleakala MPS 1030714
2019 08 24.36378 20 48 29.782 -23 18 00.60 20.4 w F51 – Pan-STARRS 1, Haleakala MPS 1030714
2019 08 24.37341 20 48 29.405 -23 18 01.72 20.5 w F51 – Pan-STARRS 1, Haleakala MPS 1030714
2019 08 28.37070 20 46 13.921 -23 24 25.27 20.6 w F51 – Pan-STARRS 1, Haleakala MPS 1030714
2019 08 28.37208 20 46 13.875 -23 24 25.37 20.5 w F51 – Pan-STARRS 1, Haleakala MPS 1030714
2019 08 28.38145 20 46 13.562 -23 24 26.01 20.5 w F51 – Pan-STARRS 1, Haleakala MPS 1030714
2019 08 28.39219 20 46 13.197 -23 24 26.77 20.6 w F51 – Pan-STARRS 1, Haleakala MPS 1030714
2019 08 28.39358 20 46 13.145 -23 24 27.00 20.5 w F51 – Pan-STARRS 1, Haleakala MPS 1030714
2019 08 28.40296 20 46 12.827 -23 24 27.51 20.6 w F51 – Pan-STARRS 1, Haleakala MPS 1030714
2019 08 28.40434 20 46 12.784 -23 24 27.69 20.5 w F51 – Pan-STARRS 1, Haleakala MPS 1030714
2019 09 25.28834 20 44 01.575 -22 58 03.77 21.4 w F51 – Pan-STARRS 1, Haleakala MPS 1055338
2019 09 25.30041 20 44 01.812 -22 58 01.72 21.3 w F51 – Pan-STARRS 1, Haleakala MPS 1055338
2019 09 25.31245 20 44 02.044 -22 57 59.52 21.2 w F51 – Pan-STARRS 1, Haleakala MPS 1055338
2019 09 25.32451 20 44 02.280 -22 57 57.33 21.3 w F51 – Pan-STARRS 1, Haleakala MPS 1055338
2019 10 27.21326 21 09 14.582 -20 25 05.41 21.9 w F51 – Pan-STARRS 1, Haleakala MPS 1073980
2019 10 27.22416 21 09 15.330 -20 25 01.53 21.6 w F51 – Pan-STARRS 1, Haleakala MPS 1073980
2019 10 27.23504 21 09 16.042 -20 24 57.29 21.7 w F51 – Pan-STARRS 1, Haleakala MPS 1073980
2019 10 27.24591 21 09 16.772 -20 24 53.22 21.7 w F51 – Pan-STARRS 1, Haleakala MPS 1073980